Regional Weather Roundup
Issued by NWS

Home | Current Version | Previous Version | Graphics & Text | Print | Product List | Glossary On
Versions: 1 2 3 4 5 6 7 8 9 10 11 12 13 14 15 16 17 18 19 20 21 22 23 24 25 26 27 28 29 30 31 32 33 34 35 36 37 38 39 40 41 42 43 44 45 46 47 48 49 50
983
ASUS45 KBOU 292107
RWRCO

WEATHER ROUNDUP FOR COLORADO
NATIONAL WEATHER SERVICE DENVER/BOULDER CO
300 PM MDT SAT APR 29 2017

NOTE: "FAIR" INDICATES FEW OR NO CLOUDS BELOW 12000 FEET WITH NO
SIGNIFICANT WEATHER AND/OR OBSTRUCTIONS TO VISIBILITY.

COZ001>005-013-030-031-292200-
...NORTHWEST COLORADO...

CITY           SKY/WX    TMP DP  RH WIND       PRES   REMARKS
CRAIG          FAIR      46  19  34 E8G17     30.08F
HAYDEN         FAIR      41  19  42 E5        30.08F
MEEKER         CLOUDY    46  24  42 NE13      30.05F
MOUNT WERNER   NOT AVBL
STEAMBOAT SPGS FAIR      39  20  46 N3        30.08F
WALDEN           N/A     30  16  55 N8        30.13F WCI  23
$$

COZ006>008-011-292200-
...WEST CENTRAL VALLEYS...

CITY           SKY/WX    TMP DP  RH WIND       PRES   REMARKS
GRAND JUNCTION PTSUNNY   54  22  28 NE18      30.02F
MONTROSE       CLOUDY    45  30  55 VRB3      30.02F
EAGLE          CLOUDY    37  18  44 E10       30.10R
RIFLE          PTSUNNY   46  23  40 N8        30.06F
DELTA          PTSUNNY   55  24  30 SW10      30.00S
NUCLA          CLOUDY    50  18  27 N17       30.03S
$$

COZ017>023-064>068-292200-
...SOUTHWEST COLORADO...

CITY           SKY/WX    TMP DP  RH WIND       PRES   REMARKS
DURANGO        PTSUNNY   44  25  47 NW15G22   29.93F
CORTEZ         LGT RAIN  44  34  67 SW13      29.95R
PAGOSA SPRINGS CLOUDY    41  17  38 NW3G18    29.92S
TELLURIDE      FAIR      35  23  61 CALM      29.99S
WOLF CREEK PAS PTSUNNY   19  14  79 N13G21    30.00R WCI   7
$$

COZ009-010-012-014-032>034-037-058>063-292200-
...CENTRAL COLORADO...

CITY           SKY/WX    TMP DP  RH WIND       PRES   REMARKS
ASPEN          CLOUDY    36  22  56 N10       30.02F
BUENA VISTA    CLOUDY    30  19  62 W6        30.05S WCI  24
COPPER MTN     LGT SNOW  19  12  73 CALM      30.03S
BERTHOUD PASS  SNOW      10   0  61 N7        30.03S VSB 1/4 WCI   0
COTTONWOOD PAS LGT SNOW  27  19  74 CALM      30.04S
GUNNISON       PTSUNNY   38  14  37 CALM      29.99
KREMMLING      LGT SNOW  34  28  80 N3        30.12F
LEADVILLE      CLOUDY    24  12  60 N10G21    30.01S WCI  14
MONARCH PASS   CLOUDY    14  10  85 E24       30.07R WCI  -5
SALIDA         CLOUDY    33  19  56 NW7       30.13S WCI  27
SUNLIGHT       CLOUDY    21  16  79 N5        30.09S WCI  15
WILKERSON PASS CLOUDY   N/A N/A N/A NE7       30.04R
$$

COZ069>075-292200-
...SAN LUIS VALLEY/SANGRE DE CRISTO MOUNTAINS...

CITY           SKY/WX    TMP DP  RH WIND       PRES   REMARKS
ALAMOSA        CLOUDY    30  24  78 N7        29.98S WCI  23
LA VETA PASS   SNOW      18  14  86 N14G23    30.06S VSB 1/2 WCI   4
SAGUACHE       CLOUDY    32  18  55 NE18G25   30.00R WCI  20
$$

COZ035-036-038>040-292200-
...NORTHERN COLORADO FRONT RANGE...

CITY           SKY/WX    TMP DP  RH WIND       PRES   REMARKS
DENVER INTL AP SNOW      30  27  88 N17       30.17S VSB 1/2 WCI  18
DMNS CITY PARK   N/A     32  29  91 N15G23    30.18S WCI  21
AURORA         LGT SNOW  29  29  96 N20       30.17R FOG     WCI  17
FRONT RANGE AP LGT SNOW  32  30  93 N15G22    30.17R WCI  22
ERIE MUNI ARPT CLOUDY    33  31  92 N12G18    30.20R FOG     WCI  24
BOULDER MUN AP CLOUDY    34  28  80 N13       30.18F WCI  25
CENTENNIAL     LGT SNOW  28  27  96 N18G24    30.16R VSB 3/4 WCI  15
BROOMFIELD     LGT SNOW  32  30  93 N13       30.18S VSB 1   WCI  22
FORT COLLINS   FAIR      36  22  56 N16       30.20F
LONGMONT       PTSUNNY   38  30  73 NE13G20   30.21F
$$

COZ041-046-047-076>085-087-088-292200-
...PIKES PEAK/PALMER DIVIDE AND SOUTHERN FOOTHILLS...

CITY           SKY/WX    TMP DP  RH WIND       PRES   REMARKS
COLO. SPRINGS  CLOUDY    31  22  69 N33G39    30.06S WCI  15
A. F. ACADEMY  MIX PCPN  27  22  80 N20G29    30.08S WCI  14
SCHRIEVER AFB  SNOWSHWR  29  25  84 N25G37    30.05  WCI  14
ELLICOTT       LGT SNOW N/A N/A N/A N30G43    30.03F
FALCON         LGT SNOW  29  22  74 N25G31    30.06F WCI  14
FORT CARSON    LGT SNOW  32  24  72 N31G39    30.04F WCI  17
LIMON          LGT SNOW  29  27  92 N28G33    30.08F VSB 1   WCI  14
MONUMENT HILL  CLOUDY    27  21  80 N18G26    30.11S WCI  13
TRINIDAD       LGT SNOW  30  26  85 N12       30.06R VSB 3/4 WCI  20
$$

COZ042>045-048>051-090-091-292200-
...NORTHEAST COLORADO...

CITY           SKY/WX    TMP DP  RH WIND       PRES   REMARKS
GREELEY ARPT   LGT RAIN  36  26  67 N17       30.21R
AKRON          LGT RAIN  38  18  44 NE24G41   30.12S
BURLINGTON     NOT AVBL
WRAY           NOT AVBL
STERLING       CLOUDY    43  23  45 N18G24    30.14S
HOLYOKE        FAIR      45  27  49 N24G35    30.13R
FORT MORGAN    CLOUDY    40  18  40 N18G26    30.16S
$$

COZ086-089-092>099-292200-
...SOUTHEAST COLORADO...

CITY           SKY/WX    TMP DP  RH WIND       PRES   REMARKS
PUEBLO         CLOUDY    35  28  75 N21G33    30.09S HAZE    WCI  24
LA JUNTA       LGT SNOW  35  29  78 N30       30.06R VSB 1   WCI  22
LAMAR          LGT SNOW  34  30  85 N21G30    29.99S FOG     WCI  22
SPRINGFIELD      N/A     31  30  96 N33G40    29.94F WCI  15
$$




USA.gov is the U.S. government's official web portal to all federal, state and local government web resources and services.